EW3230 Weather Reports


time (UTC)temp
F
wind
direction
speed
knots
gust
knots
rain 1hr
in
rain 24hr
in
rain mn
in
humidity
%
barometer
mb
20260505194159 65 167 2.6 7.8 0.00 0.00 0.00 70 1010.8
20260505193200 65 117 2.6 6.1 0.00 0.00 0.00 70 1010.8
20260505192200 66 246 1.7 5.2 0.00 0.00 0.00 69 1010.8
20260505191200 66 198 2.6 7.0 0.00 0.00 0.00 69 1010.9
20260505190159 66 170 2.6 6.1 0.00 0.00 0.00 68 1011.0
20260505185158 65 228 2.6 5.2 0.00 0.00 0.00 68 1010.9
20260505184201 66 150 1.7 5.2 0.00 0.00 0.00 69 1011.0
20260505183200 66 201 2.6 7.0 0.00 0.00 0.00 67 1011.0
20260505182202 68 139 1.7 5.2 0.00 0.00 0.00 65 1011.1
20260505181159 67 136 1.7 5.2 0.00 0.00 0.00 66 1011.2
20260505180213 68 193 1.7 6.1 0.00 0.00 0.00 67 1011.4
20260505175159 67 203 1.7 6.1 0.00 0.00 0.00 67 1011.5
20260505174200 68 155 1.7 4.3 0.00 0.00 0.00 67 1011.5
20260505173159 67 209 1.7 6.1 0.00 0.00 0.00 67 1011.6
20260505172158 68 187 1.7 6.1 0.00 0.00 0.00 66 1011.6
20260505171159 69 139 1.7 4.3 0.00 0.00 0.00 64 1011.5
20260505170701 69 210 1.7 4.3 0.00 0.00 0.00 65 1011.8
20260505165201 69 134 1.7 4.3 0.00 0.00 0.00 65 1011.9
20260505164701 68 198 1.7 3.5 0.00 0.00 0.00 66 1012.0
20260505163700 67 159 1.7 4.3 0.00 0.00 0.00 68 1012.0
20260505162159 66 165 1.7 4.3 0.00 0.00 0.00 68 1012.1
20260505161200 65 203 2.6 9.6 0.00 0.00 0.00 69 1012.2
20260505160159 66 179 2.6 6.1 0.00 0.00 0.00 69 1012.3
20260505152205 66 131 1.7 6.1 0.00 0.00 0.00 68 1012.3
20260505151158 67 207 1.7 6.1 0.00 0.00 0.00 68 1012.1
20260505150200 67 152 1.7 6.1 0.00 0.00 0.00 67 1012.2
20260505140200 67 162 0.9 2.6 0.00 0.00 0.00 69 1012.1
20260505130159 62 162 0.9 4.3 0.00 0.00 0.00 75 1012.3
20260505124159 61 249 0.9 3.5 0.00 0.00 0.00 77 1012.4
20260505123202 60 229 0.9 3.5 0.00 0.00 0.00 78 1012.2
20260505122158 60 232 0.9 3.5 0.00 0.00 0.00 79 1012.2
20260505121201 59 216 0.9 4.3 0.00 0.00 0.00 80 1012.3
20260505120158 58 179 0.9 3.5 0.00 0.00 0.00 80 1012.3
20260505115200 58 135 0.9 2.6 0.00 0.00 0.00 81 1012.3
20260505114206 56 219 0.9 2.6 0.00 0.00 0.00 80 1012.3
20260505114200 57 215 0.9 4.3 0.00 0.00 0.00 81 1012.3
20260505112159 55 150 0.0 3.5 0.00 0.00 0.00 79 1012.5
20260505111158 54 215 0.0 3.5 0.00 0.00 0.00 79 1012.5
20260505110218 53 179 0.0 3.5 0.00 0.00 0.00 77 1012.2
20260505110211 53 204 0.9 1.7 0.00 0.00 0.00 78 1012.2
20260505102159 51 198 0.0 1.7 0.00 0.00 0.00 72 1012.2
20260505101158 50 195 0.0 1.7 0.00 0.00 0.00 72 1012.1
20260505100159 50 218 0.0 0.9 0.00 0.00 0.00 72 1012.1
20260505095201 50 174 0.0 0.9 0.00 0.00 0.00 72 1012.2
20260505094200 50 175 0.0 0.9 0.00 0.00 0.00 72 1012.0
20260505093159 49 174 0.0 0.0 0.00 0.00 0.00 72 1012.1
20260505092200 49 175 0.0 0.9 0.00 0.00 0.00 72 1012.2
20260505091158 49 174 0.0 0.9 0.00 0.00 0.00 72 1012.2
20260505090703 50 174 0.0 0.9 0.00 0.00 0.00 71 1012.1
20260505085158 50 175 0.0 0.9 0.00 0.00 0.00 71 1012.1
20260505084159 49 174 0.0 0.9 0.00 0.00 0.00 70 1012.1
20260505083656 49 197 0.0 2.6 0.00 0.00 0.00 70 1012.2
20260505082152 49 203 0.0 0.9 0.00 0.00 0.00 70 1012.1
20260505081153 49 203 0.0 0.0 0.00 0.00 0.00 71 1012.2
20260505080153 48 203 0.0 0.0 0.00 0.00 0.00 71 1012.2
20260505075655 48 203 0.0 0.9 0.00 0.00 0.00 72 1012.2
20260505074153 48 203 0.0 0.0 0.00 0.00 0.00 73 1012.3
20260505073156 48 203 0.0 0.0 0.00 0.00 0.00 73 1012.3
20260505072152 49 203 0.0 0.0 0.00 0.00 0.00 74 1012.2
20260505071153 49 203 0.0 0.0 0.00 0.00 0.00 74 1012.2
20260505070154 49 203 0.0 0.0 0.00 0.00 0.00 74 1012.2
20260505064154 49 203 0.0 0.0 0.00 0.00 0.00 75 1012.3
20260505063151 49 203 0.0 0.0 0.00 0.00 0.00 76 1012.3
20260505062152 49 203 0.0 0.0 0.00 0.00 0.00 77 1012.3
20260505061152 50 203 0.0 0.0 0.00 0.00 0.00 77 1012.4
20260505060152 50 203 0.0 0.9 0.00 0.00 0.00 78 1012.3
20260505055653 50 203 0.0 0.0 0.00 0.00 0.00 78 1012.4
20260505054151 51 212 0.0 0.0 0.00 0.00 0.00 78 1012.2
20260505053149 51 212 0.0 0.9 0.00 0.00 0.00 79 1012.2
20260505052150 51 212 0.0 0.9 0.00 0.00 0.00 79 1012.3
20260505051151 51 223 0.0 0.9 0.00 0.00 0.00 79 1012.5
20260505050150 51 169 0.0 0.9 0.00 0.00 0.00 80 1012.5
20260505041150 52 207 0.0 1.7 0.00 0.00 0.00 81 1012.6
20260505040147 52 204 0.0 0.9 0.00 0.00 0.00 81 1012.6
20260505035149 52 212 0.0 1.7 0.00 0.00 0.00 81 1012.7
20260505033648 52 208 0.0 0.9 0.00 0.00 0.00 81 1012.7
20260505032145 52 209 0.0 0.9 0.00 0.00 0.00 81 1012.8
20260505031142 52 165 0.0 0.9 0.00 0.00 0.00 81 1012.9
20260505030140 52 148 0.0 1.7 0.00 0.00 0.00 81 1012.9
20260505025642 52 172 0.0 1.7 0.00 0.00 0.00 81 1012.9
20260505024141 52 145 0.0 0.9 0.00 0.00 0.00 81 1012.8
20260505023141 52 112 0.0 0.9 0.00 0.00 0.00 80 1013.0
20260505022144 52 221 0.0 0.9 0.00 0.00 0.00 80 1013.0
20260505021142 53 198 0.0 2.6 0.00 0.00 0.00 80 1012.9
20260505020142 53 215 0.0 2.6 0.00 0.00 0.00 80 1012.9
20260505015138 53 201 0.0 2.6 0.00 0.00 0.00 80 1012.8
20260505014138 53 215 0.0 2.6 0.00 0.00 0.00 79 1012.7
20260505013139 53 205 0.0 1.7 0.00 0.00 0.00 79 1012.5
20260505012137 53 221 0.0 1.7 0.00 0.00 0.00 78 1012.5
20260505011640 54 124 0.0 2.6 0.00 0.00 0.00 77 1012.2
20260505010151 54 148 0.9 5.2 0.00 0.00 0.00 76 1012.1
20260505005140 54 246 0.9 2.6 0.00 0.00 0.00 75 1011.9
20260505004142 55 203 0.9 3.5 0.00 0.00 0.00 74 1011.8
20260505003138 55 212 0.9 3.5 0.00 0.00 0.00 73 1011.5
20260505002137 55 197 0.9 3.5 0.00 0.00 0.00 72 1011.4
20260505001138 55 247 0.9 5.2 0.00 0.00 0.00 72 1011.2
20260505000138 56 195 0.9 2.6 0.00 0.00 0.00 71 1011.1
20260504235137 56 141 0.9 4.3 0.00 0.00 0.00 71 1011.2
20260504234137 56 210 1.7 4.3 0.00 0.00 0.00 69 1010.9
20260504233638 57 174 0.9 5.2 0.00 0.00 0.00 68 1010.8
20260504232138 57 190 1.7 8.7 0.00 0.00 0.00 67 1010.8
20260504231136 57 229 1.7 7.0 0.00 0.00 0.00 65 1010.7
20260504230135 58 217 1.7 5.2 0.00 0.00 0.00 64 1010.5
20260504225137 58 195 1.7 7.0 0.00 0.00 0.00 63 1010.4
20260504224136 59 235 2.6 6.1 0.00 0.00 0.00 61 1010.3
20260504223136 60 174 1.7 6.1 0.00 0.00 0.00 59 1010.3
20260504222135 61 155 1.7 6.1 0.00 0.00 0.00 56 1010.3
20260504221134 61 203 2.6 7.0 0.00 0.00 0.00 55 1010.2
20260504220133 62 215 1.7 7.0 0.00 0.00 0.00 54 1010.2
20260504215134 62 214 2.6 7.0 0.00 0.00 0.00 54 1010.2
20260504214137 63 186 1.7 7.0 0.00 0.00 0.00 52 1010.3
20260504213133 64 212 1.7 7.0 0.00 0.00 0.00 52 1010.2
20260504212134 64 134 3.5 7.0 0.00 0.00 0.00 51 1010.1
20260504211141 64 229 2.6 8.7 0.00 0.00 0.00 51 1010.1
20260504210128 65 224 3.5 7.0 0.00 0.00 0.00 49 1010.0
20260504205630 65 208 2.6 7.8 0.00 0.00 0.00 48 1010.0
20260504204129 65 173 3.5 10.4 0.00 0.00 0.00 47 1009.8
20260504203142 67 221 2.6 9.6 0.00 0.00 0.00 44 1009.8
20260504202130 66 203 3.5 9.6 0.00 0.00 0.00 43 1009.8
20260504201128 67 229 2.6 7.8 0.00 0.00 0.00 41 1009.8
20260504200129 67 217 4.3 12.2 0.00 0.00 0.00 40 1009.7
20260504195130 67 192 3.5 9.6 0.00 0.00 0.00 38 1009.8